FW6242 Weather Reports


Display with metric or nautical units.
time (UTC)temp
F
wind
direction
speed
MPH
gust
MPH
rain 1hr
in
rain 24hr
in
rain mn
in
humidity
%
barometer
mb
20260507134815 57 0 9.0 18.0 0.00 0.00 0.00 55 1009.5
20260507134305 57 0 8.0 15.0 0.00 0.00 0.00 57 1009.8
20260507133245 57 0 7.0 16.0 0.00 0.00 0.00 59 1009.4
20260507132224 56 0 6.0 15.0 0.00 0.00 0.00 60 1009.1
20260507131713 56 0 7.0 15.0 0.00 0.00 0.00 59 1008.9
20260507130653 56 0 9.0 15.0 0.00 0.00 0.00 61 1009.2
20260507130144 56 0 6.0 12.0 0.00 0.00 0.00 62 1009.2
20260507125633 56 0 5.0 11.0 0.00 0.00 0.00 64 1009.4
20260507125123 56 0 6.0 10.0 0.00 0.00 0.00 64 1009.7
20260507124613 56 0 6.0 10.0 0.00 0.00 0.00 64 1009.9
20260507123553 56 0 3.0 8.0 0.00 0.00 0.00 64 1009.8
20260507123042 56 0 5.0 8.0 0.00 0.00 0.00 64 1009.8
20260507122533 56 0 2.0 5.0 0.00 0.00 0.00 67 1009.9
20260507122026 56 0 2.0 4.0 0.00 0.00 0.00 66 1009.8
20260507121513 56 0 2.0 4.0 0.00 0.00 0.00 66 1009.4
20260507121002 56 0 2.0 5.0 0.00 0.00 0.00 66 1009.4
20260507120451 56 0 2.0 5.0 0.00 0.00 0.00 66 1009.5
20260507115941 56 0 3.0 8.0 0.00 0.00 0.00 65 1008.9
20260507115433 56 0 4.0 8.0 0.00 0.00 0.00 65 1008.8
20260507114922 56 0 4.0 10.0 0.00 0.00 0.00 66 1008.6
20260507114412 56 0 4.0 10.0 0.00 0.00 0.00 67 1007.9
20260507113901 56 0 4.0 10.0 0.00 0.00 0.00 66 1007.8
20260507113352 56 0 4.0 11.0 0.00 0.00 0.00 66 1008.4
20260507112840 57 0 6.0 11.0 0.00 0.00 0.00 66 1007.9
20260507112332 57 0 7.0 10.0 0.00 0.00 0.00 65 1007.9
20260507111821 57 0 4.0 8.0 0.00 0.00 0.00 65 1008.3
20260507111311 57 0 6.0 9.0 0.00 0.00 0.00 66 1007.8
20260507110800 57 0 6.0 10.0 0.00 0.00 0.00 66 1008.3
20260507110252 57 0 4.0 11.0 0.00 0.00 0.00 66 1008.1
20260507105740 57 0 7.0 12.0 0.00 0.00 0.00 67 1008.0
20260507105230 57 0 6.0 12.0 0.00 0.00 0.00 67 1007.8
20260507104210 57 0 8.0 12.0 0.00 0.00 0.00 67 1007.3
20260507103700 57 0 8.0 14.0 0.00 0.00 0.00 67 1007.4
20260507103149 57 0 6.0 14.0 0.00 0.00 0.00 67 1007.2
20260507102639 57 0 7.0 15.0 0.00 0.00 0.00 69 1007.9
20260507102130 58 0 8.0 15.0 0.00 0.00 0.00 68 1007.7
20260507101109 58 0 6.0 9.0 0.00 0.00 0.00 70 1007.7
20260507100058 57 0 4.0 9.0 0.00 0.00 0.00 71 1007.5
20260507095540 57 0 4.0 8.0 0.00 0.00 0.00 72 1007.7
20260507095029 58 0 4.0 8.0 0.00 0.00 0.00 72 1007.5
20260507094515 58 0 4.0 8.0 0.00 0.00 0.00 72 1007.6
20260507094024 57 0 4.0 8.0 0.00 0.00 0.00 72 1007.3
20260507093459 58 0 4.0 9.0 0.00 0.00 0.00 73 1006.8
20260507092949 58 0 4.0 9.0 0.00 0.00 0.00 73 1006.7
20260507092439 58 0 4.0 8.0 0.00 0.00 0.00 74 1006.9
20260507091928 58 0 4.0 11.0 0.00 0.00 0.00 73 1007.1
20260507091418 58 0 5.0 11.0 0.00 0.00 0.00 73 1006.9
20260507090908 58 0 4.0 8.0 0.00 0.00 0.00 72 1006.9
20260507090358 59 0 4.0 9.0 0.00 0.00 0.00 71 1006.9
20260507085849 59 0 4.0 11.0 0.00 0.00 0.00 71 1006.9
20260507085338 59 0 6.0 11.0 0.00 0.00 0.00 71 1006.7
20260507084828 59 0 7.0 11.0 0.00 0.00 0.00 72 1006.6
20260507084318 59 0 6.0 11.0 0.00 0.00 0.00 72 1006.7
20260507083807 59 0 7.0 11.0 0.00 0.00 0.00 74 1006.5
20260507083258 59 0 8.0 12.0 0.00 0.00 0.00 74 1006.5
20260507082747 60 0 5.0 12.0 0.00 0.00 0.00 76 1006.2
20260507081727 60 0 7.0 12.0 0.00 0.00 0.00 78 1006.6
20260507081217 60 0 5.0 15.0 0.00 0.00 0.00 77 1006.7
20260507080707 60 0 7.0 15.0 0.00 0.00 0.00 76 1006.8
20260507080157 61 0 9.0 21.0 0.00 0.00 0.00 76 1006.5
20260507075647 61 0 8.0 21.0 0.00 0.00 0.00 76 1006.7
20260507075136 61 0 10.0 15.0 0.00 0.00 0.00 78 1006.2
20260507074627 62 0 9.0 16.0 0.00 0.00 0.00 81 1006.3
20260507074116 62 0 8.0 16.0 0.00 0.00 0.00 82 1006.0
20260507073606 62 0 9.0 17.0 0.00 0.00 0.00 83 1006.1
20260507073056 63 0 10.0 23.0 0.00 0.00 0.00 84 1006.2
20260507072547 63 0 12.0 23.0 0.00 0.00 0.00 85 1006.0
20260507072035 63 0 8.0 19.0 0.00 0.00 0.00 88 1006.1
20260507071526 63 0 8.0 19.0 0.00 0.00 0.00 91 1006.2
20260507070505 64 0 8.0 18.0 0.00 0.00 0.00 92 1006.2
20260507065955 64 0 7.0 16.0 0.00 0.00 0.00 92 1006.2
20260507065446 64 0 6.0 16.0 0.00 0.00 0.00 93 1006.0
20260507064935 64 0 7.0 13.0 0.00 0.00 0.00 93 1005.9
20260507064425 63 0 7.0 15.0 0.00 0.00 0.00 93 1005.8
20260507063914 63 0 5.0 15.0 0.00 0.00 0.00 93 1005.6
20260507063404 64 0 4.0 12.0 0.00 0.00 0.00 93 1005.6
20260507062854 64 0 4.0 12.0 0.00 0.00 0.00 93 1005.5
20260507062345 64 0 6.0 12.0 0.00 0.00 0.00 93 1005.6
20260507061324 64 0 7.0 11.0 0.00 0.00 0.00 94 1005.5
20260507060813 64 0 8.0 0.0 0.00 0.00 0.00 94 1005.4
20260507055851 64 0 6.0 11.0 0.00 0.00 0.00 94 1005.6
20260507055341 64 0 5.0 10.0 0.00 0.00 0.00 94 1005.0
20260507054832 64 0 4.0 10.0 0.00 0.00 0.00 94 1004.9
20260507054321 64 0 5.0 11.0 0.00 0.00 0.00 94 1005.0
20260507053810 64 0 5.0 11.0 0.00 0.00 0.00 93 1005.1
20260507053302 64 0 5.0 9.0 0.00 0.00 0.00 93 1005.0
20260507052240 63 0 5.0 10.0 0.00 0.00 0.00 93 1005.1
20260507051730 63 0 5.0 9.0 0.00 0.00 0.00 93 1005.1
20260507051220 63 0 6.0 9.0 0.00 0.00 0.00 93 1005.4
20260507050710 63 0 4.0 8.0 0.00 0.00 0.00 92 1005.1
20260507045139 63 0 5.0 11.0 0.00 0.00 0.00 92 1004.9
20260507044630 63 0 5.0 10.0 0.00 0.00 0.00 92 1004.7
20260507044120 63 0 4.0 8.0 0.00 0.00 0.00 94 1004.6
20260507043108 63 0 3.0 5.0 0.00 0.00 0.00 94 1004.3
20260507034624 64 0 4.0 6.0 0.00 0.00 0.00 93 1004.5
20260507034120 64 0 4.0 6.0 0.00 0.00 0.00 93 1004.1
20260507033556 64 0.0 0.0 0.00 0.00 0.00 93
20260507031158 66 0 2.0 2.0 0.00 0.00 0.00 92 1004.4
20260507030649 66 0 2.0 2.0 0.00 0.00 0.00 92 1004.4
20260507030139 66 0 0.0 3.0 0.00 0.00 0.00 92 1004.6
20260507025628 66 0 0.0 4.0 0.00 0.00 0.00 91 1004.8
20260507025117 66 0 0.0 4.0 0.00 0.00 0.00 91 1004.9
20260507024609 66 0 1.0 4.0 0.00 0.00 0.00 90 1004.4
20260507024058 66 0 0.0 8.0 0.00 0.00 0.00 90 1004.0
20260507023549 67 0 0.0 8.0 0.00 0.00 0.00 88 1004.0
20260507023037 67 0 5.0 8.0 0.00 0.00 0.00 86 1003.7
20260507022527 67 0 3.0 5.0 0.00 0.00 0.00 86 1003.7
20260507022024 67 0 2.0 5.0 0.00 0.00 0.00 85 1004.0
20260507021507 67 0 1.0 6.0 0.00 0.00 0.00 85 1003.8
20260507020958 67 0 2.0 8.0 0.00 0.00 0.00 84 1004.1
20260507015938 68 0 3.0 10.0 0.00 0.00 0.00 82 1003.4
20260507015426 68 0 4.0 12.0 0.00 0.00 0.00 82 1003.4
20260507014919 68 0 3.0 12.0 0.00 0.00 0.00 84 1003.6
20260507014406 68 0 5.0 9.0 0.00 0.00 0.00 92 1003.4
20260507013347 68 0 0.0 4.0 0.00 0.00 0.00 91 1002.7
20260507012836 68 0 2.0 4.0 0.00 0.00 0.00 92 1002.6
20260507012326 68 0 2.0 3.0 0.00 0.00 0.00 91 1002.9
20260507011816 68 0 2.0 4.0 0.00 0.00 0.00 91 1002.8
20260507011306 69 0 2.0 4.0 0.00 0.00 0.00 90 1002.4
20260507010756 70 0 2.0 4.0 0.00 0.00 0.00 90 1002.8
20260507010246 70 0 0.0 2.0 0.00 0.00 0.00 90 1002.8
20260507005225 70 0 0.0 2.0 0.00 0.00 0.00 89 1002.6
20260507004716 70 0 0.0 2.0 0.00 0.00 0.00 89 1002.5
20260507003655 69 0 0.0 3.0 0.00 0.00 0.00 89 1002.3
20260507003149 70 0 1.0 3.0 0.00 0.00 0.00 88 1002.3
20260507002125 69 0 0.0 2.0 0.00 0.00 0.00 88 1002.7
20260507001615 70 0 0.0 2.0 0.00 0.00 0.00 87 1003.2
20260507000554 71 0 0.0 3.0 0.00 0.00 0.00 86 1002.9
20260507000044 70 0 2.0 3.0 0.00 0.00 0.00 85 1003.2
20260506235534 69 0 0.0 1.0 0.00 0.00 0.00 86 1003.2
20260506235024 69 0 0.0 2.0 0.00 0.00 0.00 86 1003.1
20260506234514 69 0 0.0 2.0 0.00 0.00 0.00 87 1002.9
20260506234004 69 0 0.0 3.0 0.00 0.00 0.00 87 1003.1
20260506233454 69 0 0.0 3.0 0.00 0.00 0.00 86 1002.6
20260506232945 70 0 0.0 3.0 0.00 0.00 0.00 85 1002.4
20260506232434 71 0 0.0 2.0 0.00 0.00 0.00 85 1002.2
20260506231924 71 0 0.0 2.0 0.00 0.00 0.00 85 1002.2
20260506231413 71 0 0.0 0.0 0.00 0.00 0.00 86 1001.9
20260506230904 70 0 0.0 0.0 0.00 0.00 0.00 86 1001.8
20260506230353 70 0 0.0 0.0 0.00 0.00 0.00 86 1002.3
20260506225842 70 0 0.0 0.0 0.00 0.00 0.00 86 1002.3
20260506225333 71 0 0.0 0.0 0.00 0.00 0.00 85 1002.1
20260506224823 71 0 0.0 0.0 0.00 0.00 0.00 86 1001.8
20260506224313 71 0 0.0 0.0 0.00 0.00 0.00 86 1001.8
20260506223802 71 0 0.0 0.0 0.00 0.00 0.00 86 1001.8
20260506223252 71 0 0.0 0.0 0.00 0.00 0.00 85 1001.5
20260506222742 72 0 0.0 0.0 0.00 0.00 0.00 84 1001.6
20260506222231 71 0 0.0 0.0 0.00 0.00 0.00 84 1001.5
20260506221722 71 0 0.0 0.0 0.00 0.00 0.00 84 1001.3
20260506220703 73 0 0.0 0.0 0.00 0.00 0.00 84 1001.2
20260506220152 73 0 0.0 0.0 0.00 0.00 0.00 82 1001.4
20260506215636 73 0.0 0.0 0.00 0.00 0.00 82
20260506210440 81 0 2.0 6.0 0.00 0.00 0.00 69 1000.2
20260506205930 81 0 3.0 6.0 0.00 0.00 0.00 68 1000.2
20260506205421 82 0 4.0 8.0 0.00 0.00 0.00 68 1000.2
20260506204910 82 0 4.0 8.0 0.00 0.00 0.00 66 1000.5
20260506203340 83 0 5.0 11.0 0.00 0.00 0.00 65 1000.3
20260506202831 84 0 4.0 11.0 0.00 0.00 0.00 64 1000.4
20260506202319 84 0 4.0 12.0 0.00 0.00 0.00 64 1000.5
20260506201810 84 0 4.0 12.0 0.00 0.00 0.00 64 1000.3
20260506201300 84 0 7.0 11.0 0.00 0.00 0.00 63 1000.1
20260506200751 84 0 7.0 15.0 0.00 0.00 0.00 63 1000.0
20260506200240 84 0 6.0 15.0 0.00 0.00 0.00 63 1000.1
20260506195219 85 0 6.0 14.0 0.00 0.00 0.00 63 1000.2
20260506194708 85 0 4.0 14.0 0.00 0.00 0.00 63 1000.1
20260506194159 85 0 4.0 12.0 0.00 0.00 0.00 64 1000.3
20260506193649 85 0 7.0 13.0 0.00 0.00 0.00 63 1000.3
20260506193139 85 0 4.0 15.0 0.00 0.00 0.00 64 1000.5
20260506192629 85 0 5.0 15.0 0.00 0.00 0.00 63 1000.8
20260506192119 85 0 3.0 14.0 0.00 0.00 0.00 66 1000.9
20260506191059 83 0 4.0 14.0 0.00 0.00 0.00 68 1001.0
20260506190549 84 0 8.0 15.0 0.00 0.00 0.00 66 1001.2
20260506190037 84 0 4.0 15.0 0.00 0.00 0.00 65 1001.2
20260506185528 85 0 6.0 13.0 0.00 0.00 0.00 64 1001.5
20260506185024 85 0 5.0 13.0 0.00 0.00 0.00 64 1001.5
20260506184514 85 0 5.0 11.0 0.00 0.00 0.00 65 1001.8
20260506183958 84 0 7.0 11.0 0.00 0.00 0.00 66 1001.9
20260506183448 83 0 6.0 13.0 0.00 0.00 0.00 65 1002.2
20260506182937 83 0 5.0 13.0 0.00 0.00 0.00 69 1002.4
20260506182427 83 0 5.0 13.0 0.00 0.00 0.00 69 1002.3
20260506181917 83 0 9.0 13.0 0.00 0.00 0.00 68 1002.3
20260506181407 83 0 7.0 13.0 0.00 0.00 0.00 68 1002.5
20260506180347 82 0 5.0 14.0 0.00 0.00 0.00 71 1002.3
20260506175837 83 0 5.0 14.0 0.00 0.00 0.00 72 1002.3
20260506175327 83 0 4.0 14.0 0.00 0.00 0.00 72 1002.4
20260506174817 82 0 8.0 14.0 0.00 0.00 0.00 70 1002.4
20260506174307 82 0 6.0 9.0 0.00 0.00 0.00 72 1002.4
20260506173246 81 0 6.0 11.0 0.00 0.00 0.00 74 1002.5
20260506172226 80 0 8.0 12.0 0.00 0.00 0.00 76 1002.7
20260506171716 80 0 8.0 12.0 0.00 0.00 0.00 76 1002.5
20260506171206 79 0 5.0 8.0 0.00 0.00 0.00 79 1002.8
20260506170655 79 0 1.0 7.0 0.00 0.00 0.00 81 1003.1
20260506170145 79 0 3.0 7.0 0.00 0.00 0.00 81 1003.0
20260506165635 77 0 4.0 8.0 0.00 0.00 0.00 83 1003.1
20260506165125 77 0 4.0 10.0 0.00 0.00 0.00 83 1003.1
20260506164616 76 0 5.0 10.0 0.00 0.00 0.00 86 1003.3
20260506164105 76 0 5.0 14.0 0.00 0.00 0.00 88 1003.5
20260506163555 75 0 5.0 14.0 0.00 0.00 0.00 89 1003.5
20260506163044 73 0 7.0 12.0 0.00 0.00 0.00 93 1003.4
20260506162536 73 0 5.0 11.0 0.00 0.00 0.00 94 1003.9
20260506162025 72 0 3.0 11.0 0.00 0.00 0.00 95 1003.9
20260506161514 72 0 4.0 10.0 0.00 0.00 0.00 95 1003.9
20260506160454 71 0 5.0 11.0 0.00 0.00 0.00 95 1004.3
20260506155943 71 0 4.0 11.0 0.00 0.00 0.00 95 1004.3
20260506155434 71 0 4.0 9.0 0.00 0.00 0.00 95 1004.6
20260506154923 71 0 5.0 9.0 0.00 0.00 0.00 95 1004.8
20260506153903 71 0 1.0 6.0 0.00 0.00 0.00 95 1005.4
20260506153353 70 0 1.0 8.0 0.00 0.00 0.00 95 1005.4
20260506152843 70 0 2.0 8.0 0.00 0.00 0.00 95 1005.3
20260506152333 70 0 2.0 8.0 0.00 0.00 0.00 95 1005.3
20260506151822 70 0 2.0 8.0 0.00 0.00 0.00 95 1005.6
20260506150803 69 0 2.0 11.0 0.00 0.00 0.00 95 1005.9
20260506145743 69 0 3.0 9.0 0.00 0.00 0.00 95 1006.5
20260506144723 69 0 1.0 7.0 0.00 0.00 0.00 95 1006.6
20260506144212 69 0 2.0 6.0 0.00 0.00 0.00 95 1006.7
20260506143702 69 0 2.0 4.0 0.00 0.00 0.00 95 1006.6
20260506142131 69 0 1.0 4.0 0.00 0.00 0.00 95 1006.7
20260506141622 69 0 0.0 4.0 0.00 0.00 0.00 95 1007.0
20260506141111 69 0 0.0 2.0 0.00 0.00 0.00 95 1006.9
20260506140601 69 0 0.0 2.0 0.00 0.00 0.00 95 1007.1
20260506140051 68 0 0.0 2.0 0.00 0.00 0.00 95 1006.9
20260506135541 68 0 0.0 2.0 0.00 0.00 0.00 95 1007.2
20260506135031 67 0 0.0 0.0 0.00 0.00 0.00 95 1007.2